Terminal Aerodrome Forecast
Issued by NWS Melbourne, FL

Home | Current Version | Previous Version | Text Only | Print | Product List | Glossary On
Versions: 1 2 3 4 5 6 7 8 9 10 11 12 13 14 15 16 17 18 19 20 21 22 23 24 25 26 27 28
000
FTUS42 KMLB 020520
TAFMCO
TAF
KMCO 020520Z 0206/0306 19004KT P6SM VCSH SCT035 BKN090 OVC200
      TEMPO 0206/0207 -RA
     FM021400 22011KT P6SM VCSH SCT030 BKN120
     FM021600 23014G22KT P6SM VCSH SCT040 BKN080
      TEMPO 0216/0220 3SM TSRA BKN020CB OVC040
     FM022200 23010KT P6SM SCT030 OVC060
     FM030200 19004KT P6SM FEW035 BKN090 OVC200=

USA.gov is the U.S. government's official web portal to all federal, state and local government web resources and services.